Location: Unspecified
(0.0000°N, 0.0000°E)
Time: 21:29:26
(UTC+00:00)

Vanguard 2 - Visible Passes

Search period start: 31 October 2014 00:00
Search period end: 10 November 2014 00:00
Orbit: 553 x 2947 km, 32.9° (Epoch: 31 October)

Date Brightness Start Highest point End Pass type
(mag) Time Alt. Az. Time Alt. Az. Time Alt. Az.
04 Nov 10.2 19:30:37 10° N 19:30:38 10° N 19:30:38 10° N visible
05 Nov 10.1 19:47:59 10° NNW 19:49:09 13° NNW 19:49:09 13° NNW visible
06 Nov 10.1 20:06:23 10° NNW 20:07:45 15° NNW 20:07:45 15° NNW visible
07 Nov 9.8 18:16:29 10° NNW 18:20:55 14° NNE 18:24:30 10° NE visible
07 Nov 10.2 20:25:15 10° NW 20:26:25 15° NW 20:26:25 15° NW visible
08 Nov 11.3 05:11:47 10° S 05:16:23 14° SE 05:21:55 10° ESE visible
08 Nov 9.4 18:34:35 10° NNW 18:40:57 21° NNE 18:43:36 17° NE visible
08 Nov 10.4 20:44:30 10° WNW 20:45:10 13° WNW 20:45:10 13° WNW visible
09 Nov 8.8 18:53:10 10° NW 19:00:48 32° NNE 19:02:25 28° NE visible
